Weather in Yurino

Russia / Mari El Republic     56°17′14″N   46°17′29″E
В апреле 2022 года жителям России запретили посещать сайт meteo.paraplan.net по решению Генеральной прокуратуры. Аудитория сайта уменьшилась в 10 раз. Владельцы сайта не видят смысла в поддержке погодного сервера в таких условиях. Сайт будет закрыт в октябре.
temp.,
°C
wind,
m/s
gust,
m/s
humid.,
%
clouds,
%
prec.,
mm/h
press.,
hPa
HPBL,
m
3 october, mon
mon300:00+14sse4109679 0.2 1009334
03:00+14sse41095100 0.3 1008329
06:00+14sse51394100 0.6 1008405
09:00+16sse61580100 0.7 1009629
12:00+18sse71658100 0.0 10101022
15:00+18sse8155285 0.0 10101147
18:00+16sse71452100 0.0 10121058
21:00+14s61465100 0.2 10141156
4 october, tue
tue400:00+12sse61378100 0.4 1016816
03:00+12sse51184100 0.4 1017532
06:00+10sse4119322 0.0 1018407
09:00+14s5973100 0.0 1019875
12:00+16sse5858100 0.0 10201295
15:00+16sse5764100 0.1 10191237
18:00+12sse61270100 0.0 1020607
21:00+11sse61371100 0.0 1020675
5 october, wed
wed500:00+10sse51381100 0.0 1020635
03:00+10sse61370100 0.0 1019615
06:00+10sse61277100 0.5 1019559
09:00+10sse51286100 1.6 1019598
12:00+10s51285100 2.1 1018701
15:00+12s51181100 4.2 1016963
18:00+11ssw41084100 1.5 1016453
21:00+10sw3985100 1.6 1015457
6 october, thu
thu600:00+9ssw4990100 0.6 1015774
03:00+8sw488591 1.9 1015489
06:00+6sw389199 0.2 1015421
09:00+7wsw467976 0.7 1015859
12:00+6wsw4688100 0.5 1015766
15:00+7wsw468282 0.6 1015653
18:00+7wsw3881100 0.1 1016308
21:00+6sw3781100 0.1 1015219
7 october, fri
fri700:00+6sw388667 0.0 1014304
03:00+4s3989100 0.0 1012223
06:00+6ssw51194100 0.8 1010531
09:00+9w51195100 1.4 1010647
12:00+11w61075100 0.1 10111222
15:00+10w51077100 0.2 10121071
18:00+9w61380100 0.1 10131155
21:00+9w7157788 0.1 10141014